Theta_e
276 275 275 275 274 274 274 273 273 273 272 272 272 271 271 271 271 270 270 270 269 269 269 268 268 268 268 268 268 268 269 269 269 269 270 270 270 270 270 269 269 269 269 269 269 269 269 269 268 268 268 268 268 269 269 270 270 270 270 270 269 269 269
276 275 275 275 274 274 274 273 273 273 272 272 271 271 271 271 270 270 270 269 269 269 268 268 268 268 268 268 267 268 268 268 268 268 268 268 268 268 268 268 268 268 268 268 268 268 268 268 268 268 268 268 268 268 269 269 270 270 270 269 269 269 269
276 275 275 274 274 274 274 273 273 272 272 272 271 271 271 270 270 269 269 269 269 268 268 268 267 267 267 267 267 267 267 267 267 267 267 267 267 267 267 267 267 267 267 267 267 267 267 267 267 267 267 267 267 268 268 268 269 269 269 269 268 268 268
275 275 275 274 274 274 273 273 273 272 272 271 271 271 270 270 269 269 269 268 268 268 267 267 267 267 266 266 266 266 266 266 266 266 266 266 267 266 266 267 267 267 267 267 267 267 267 267 267 267 267 267 267 268 268 268 268 268 268 268 268 268 268
275 275 274 274 274 274 273 273 272 272 271 271 271 270 270 269 269 269 268 268 268 267 267 267 266 266 266 266 266 266 266 266 266 266 266 266 266 266 266 266 266 266 266 266 266 266 266 266 266 266 266 267 267 268 268 268 268 268 268 268 268 267 267
275 275 274 274 274 274 273 273 272 272 271 271 270 270 269 269 269 268 268 268 267 267 267 266 266 266 266 266 266 266 266 266 266 266 266 266 266 266 266 266 266 266 266 266 265 265 265 266 266 266 266 267 267 268 268 268 268 267 267 267 267 267 267
275 275 274 274 274 273 273 272 272 271 271 270 270 269 269 269 268 268 267 267 267 266 266 266 266 266 266 266 266 266 266 266 266 266 266 266 266 266 266 266 266 266 266 266 265 265 265 265 266 266 266 267 267 267 267 267 267 267 267 267 267 267 267
275 274 274 274 273 273 272 272 271 271 271 270 270 269 269 268 268 267 267 267 267 266 266 267 267 266 266 266 266 266 266 266 266 266 266 266 266 266 266 266 266 266 266 266 265 265 265 266 266 266 266 267 267 267 267 267 266 266 266 266 266 266 266
275 274 274 273 273 272 272 271 271 271 270 270 269 269 268 268 267 267 267 267 267 267 267 267 267 267 266 266 266 266 266 266 266 266 266 266 266 266 266 266 266 266 266 266 265 266 266 266 266 266 266 267 267 267 267 267 266 266 266 266 266 266 266
274 273 273 273 272 272 271 271 271 270 270 269 269 268 268 268 268 267 267 267 267 267 267 267 267 267 266 266 266 266 266 266 266 266 266 266 266 266 266 266 266 266 266 266 266 266 267 267 266 267 267 266 267 267 266 266 266 265 265 265 264 264 265
273 273 273 272 272 271 271 270 270 270 269 269 269 268 268 268 268 268 267 267 267 267 267 267 267 267 266 266 266 266 266 266 266 266 266 266 266 266 266 266 266 266 266 266 266 267 267 267 266 266 266 266 266 266 266 266 266 265 265 264 263 262 263
273 273 272 272 271 271 270 270 270 269 269 268 269 269 269 268 268 268 268 267 267 267 267 267 267 267 266 266 266 266 266 266 265 265 265 265 265 265 265 266 266 266 266 266 266 266 266 266 266 266 266 266 266 266 266 265 265 265 264 264 262 262 262
272 272 272 271 271 270 270 269 269 269 268 268 268 269 269 268 268 268 268 268 267 267 267 267 267 266 266 266 266 265 265 265 265 264 264 265 265 265 265 265 265 265 265 265 265 265 265 266 266 265 265 266 265 265 265 265 265 265 264 263 263 262 263
272 271 271 271 270 270 269 269 268 268 268 268 268 268 268 268 268 268 268 268 267 267 267 267 266 266 266 265 265 265 265 265 264 265 265 265 265 265 265 265 265 265 265 265 265 265 265 265 265 265 265 265 265 265 265 265 264 264 264 263 263 262 263
271 271 271 270 270 269 268 268 268 267 267 267 267 268 268 268 268 267 267 267 266 266 266 266 266 265 265 265 265 265 264 265 265 265 265 265 265 265 265 265 265 265 265 265 265 265 265 265 265 265 265 265 265 265 265 265 264 264 263 263 262 262 262
271 270 270 269 269 268 267 267 267 267 266 266 267 267 267 267 266 266 266 265 265 265 265 265 265 265 265 264 264 264 264 265 265 265 265 265 265 265 265 265 265 265 265 265 265 266 266 266 266 266 266 266 266 265 265 265 264 263 263 262 261 261 261
270 270 269 269 268 267 267 267 267 266 265 266 266 266 266 266 265 265 264 264 264 264 264 265 264 264 264 264 264 264 265 265 265 265 265 265 265 265 265 265 265 265 265 265 265 266 266 266 266 266 266 266 265 265 265 264 263 263 262 261 259 259 260
270 269 269 268 267 267 267 266 266 265 265 265 265 266 265 265 264 264 264 264 264 264 264 264 264 264 264 264 264 264 265 265 265 266 265 266 265 265 265 265 265 265 264 265 265 265 265 265 265 265 265 264 264 264 264 263 262 262 261 260 259 258 258
269 268 268 267 267 266 266 266 265 265 264 264 264 265 265 264 264 264 264 264 264 264 264 264 264 264 264 264 264 264 265 266 266 266 266 266 265 265 265 265 264 264 264 264 264 264 264 264 264 264 264 264 263 263 263 262 261 261 260 259 259 258 257
268 268 267 267 266 266 265 265 264 264 263 263 264 265 265 264 264 264 264 264 264 264 264 264 264 264 264 264 264 264 265 266 266 267 266 265 264 264 264 264 264 264 263 263 263 263 263 263 263 263 263 263 263 262 262 261 260 260 259 259 258 257 256
267 267 267 266 266 265 265 264 264 263 263 262 263 264 264 264 264 264 264 264 264 264 264 264 264 264 264 264 264 264 265 266 266 266 265 264 264 264 264 264 263 263 262 262 262 261 262 262 262 262 262 261 261 261 260 260 259 259 259 258 257 257 255
267 266 266 265 265 265 264 264 263 263 262 262 262 263 264 264 263 263 263 264 264 264 264 264 264 264 264 264 264 264 265 266 266 265 264 264 264 264 263 263 262 262 261 261 261 260 261 261 261 261 260 260 260 260 259 259 259 258 258 257 257 256 255
266 265 265 265 264 264 264 264 263 262 262 262 262 262 263 263 263 263 264 264 264 264 264 264 264 264 264 264 264 265 265 265 265 264 264 264 264 263 262 262 261 261 260 259 260 260 260 260 260 260 259 259 259 259 259 259 258 258 257 257 256 256 255
265 265 264 264 264 264 264 263 262 262 262 262 262 262 262 262 263 263 263 264 263 263 264 264 264 264 264 264 264 265 265 265 264 264 263 263 263 262 261 261 261 260 259 259 259 259 259 259 259 259 259 259 259 258 258 258 257 256 256 256 255 255 254
265 264 263 263 263 263 263 263 262 262 262 261 261 261 261 261 262 262 262 262 262 262 263 263 264 264 264 264 264 264 264 264 264 263 263 263 262 261 261 261 260 259 258 258 258 257 258 258 258 257 257 258 257 257 257 257 256 255 255 254 254 254 254
264 263 262 262 262 262 263 262 261 261 261 261 261 261 261 261 261 260 261 261 261 262 262 263 263 263 263 263 263 263 263 263 263 263 262 262 261 261 261 260 260 259 258 257 257 256 256 256 256 256 256 256 256 256 255 255 254 254 254 254 254 254 254
263 262 261 261 262 262 262 261 261 261 261 261 261 261 261 261 260 260 260 260 261 261 262 263 263 262 262 262 262 262 262 262 262 262 261 261 260 260 260 260 259 258 257 256 256 256 255 255 255 255 255 255 255 254 254 254 253 253 254 254 253 253 254
263 262 262 262 261 261 260 260 260 261 261 261 261 261 261 261 261 261 261 261 261 261 262 262 262 262 262 262 262 262 261 261 261 261 260 260 260 260 260 259 258 258 257 256 255 255 255 255 254 254 254 254 254 254 253 253 253 253 253 253 253 253 253
264 263 263 263 262 261 260 259 260 261 261 261 261 261 261 261 261 261 261 261 261 261 261 262 261 261 261 261 261 261 261 261 261 260 260 260 259 259 259 259 258 258 257 256 255 255 254 254 254 254 253 253 253 253 253 253 252 252 253 253 253 252 253
264 264 263 263 262 261 260 260 261 262 261 261 261 261 261 261 262 262 261 261 261 261 261 261 261 261 261 261 261 261 261 261 261 260 260 259 259 259 259 258 258 257 257 256 255 254 254 254 253 253 253 253 253 253 253 252 252 252 252 252 252 252 253
264 263 263 262 262 261 261 261 261 261 261 261 262 262 262 262 262 262 262 262 262 261 261 260 260 260 260 261 260 260 261 261 260 260 260 260 259 259 259 258 258 257 256 255 255 254 254 253 253 253 252 252 252 252 252 252 252 252 252 252 252 252 252
263 262 262 262 261 261 261 261 261 261 261 261 262 262 262 262 262 263 263 263 262 262 261 261 260 260 260 260 260 260 261 261 261 260 260 260 259 259 259 259 258 257 256 255 255 254 254 253 253 252 252 252 252 252 252 252 252 252 252 252 252 252 252
262 262 262 262 262 262 262 262 262 262 262 262 262 262 262 262 262 262 262 263 263 262 261 261 261 261 261 261 261 261 261 261 261 261 260 260 259 259 259 259 258 257 256 256 255 254 254 253 253 252 252 252 252 252 252 252 252 252 252 252 252 252 252
262 262 262 262 263 263 263 263 263 262 262 262 261 261 261 261 261 261 261 262 262 262 262 261 261 261 261 261 261 261 261 261 261 261 261 260 260 259 259 259 258 257 256 256 255 254 254 253 253 252 252 252 252 252 251 252 252 251 251 251 251 251 251
262 262 262 262 262 262 262 262 262 262 262 261 260 260 260 260 260 260 260 261 261 261 261 261 261 261 261 261 261 261 261 261 261 261 261 260 260 259 259 258 258 257 257 256 255 254 254 253 253 252 252 252 252 252 252 252 251 251 251 251 251 251 251
261 261 261 261 261 261 261 261 261 261 261 260 260 259 259 260 260 260 260 260 260 260 261 261 261 261 261 261 261 261 261 261 261 261 260 260 260 259 259 259 258 257 257 256 255 254 254 253 253 252 252 252 252 252 252 251 251 251 251 251 251 251 251
Wind_Speed
18 18 19 18 18 18 18 17 17 17 17 16 16 16 15 15 14 15 14 14 14 14 15 16 17 18 17 16 15 14 13 13 13 13 12 10 10 11 11 11 11 11 13 15 14 14 17 20 21 22 22 22 24 25 23 20 20 21 23 25 26 26 25
19 19 19 19 19 19 19 19 18 18 18 17 17 17 16 16 15 15 15 14 15 15 16 17 18 19 19 18 17 16 16 17 17 17 16 13 12 13 12 12 14 14 14 16 16 16 19 21 21 22 23 22 24 23 20 20 22 23 24 25 24 24 25
20 20 20 20 20 20 20 20 20 19 19 19 18 18 17 16 16 15 15 15 16 17 18 19 20 21 21 20 19 20 20 20 20 20 20 20 19 18 19 17 18 18 18 19 20 18 18 20 22 24 23 23 24 23 21 22 22 22 22 23 24 25 25
21 21 21 21 21 21 22 21 21 21 20 20 19 19 18 17 16 16 16 17 18 18 19 20 22 22 21 20 19 20 19 19 20 20 21 22 22 21 22 22 21 21 21 21 21 19 19 21 23 24 23 22 22 20 17 18 19 20 21 23 24 25 25
22 22 22 22 22 22 23 22 22 22 21 20 20 19 19 17 17 17 18 18 19 20 21 22 23 21 18 17 17 17 17 17 18 18 18 19 19 20 21 21 20 21 22 22 22 21 20 21 22 23 21 18 17 16 15 16 19 21 22 23 23 24 26
23 23 23 23 23 23 23 23 22 22 21 21 20 20 19 18 18 18 19 20 20 21 22 21 19 17 15 15 17 17 17 16 16 17 17 18 18 19 19 19 19 20 22 24 24 23 21 20 20 19 18 16 16 17 18 20 22 22 21 21 23 25 27
24 24 24 23 23 23 23 22 22 22 21 21 21 20 19 18 19 20 20 20 20 20 20 18 16 15 14 15 16 17 16 16 16 17 18 19 20 19 19 20 21 22 23 25 24 22 20 20 19 19 20 21 20 21 21 21 21 21 20 20 23 26 29
25 25 24 23 23 23 22 22 22 22 22 22 21 20 19 19 19 20 21 20 20 19 18 17 17 16 15 16 17 17 17 18 18 19 20 19 19 19 20 22 22 22 23 23 22 20 19 21 21 20 21 22 20 20 20 19 17 18 20 21 23 26 29
25 24 23 23 23 23 23 23 23 23 22 21 21 20 20 19 20 21 21 21 20 19 18 19 18 17 17 18 18 18 18 18 18 18 20 20 19 19 20 20 20 21 21 21 19 18 19 19 18 19 20 19 18 18 19 18 17 18 21 22 24 26 26
24 24 23 23 23 23 23 23 23 22 22 21 21 20 19 19 20 21 21 21 21 21 21 20 19 18 18 18 18 18 19 19 18 18 19 20 20 20 20 20 20 21 20 19 17 16 15 14 15 17 17 16 16 17 18 19 18 19 20 20 21 22 23
24 24 23 23 23 24 24 24 23 22 21 19 18 18 18 19 20 20 20 21 22 22 23 21 19 19 20 20 20 20 19 18 18 18 19 20 20 20 21 20 19 17 16 15 15 14 14 14 15 15 15 16 18 18 19 20 19 18 19 17 14 14 17
24 24 24 24 24 24 24 23 22 21 20 18 16 17 18 20 21 20 20 21 21 21 22 21 21 20 20 19 18 17 17 17 19 21 21 21 20 21 22 23 22 20 18 16 16 16 16 15 15 16 18 19 20 19 18 18 17 18 19 18 13 12 16
24 24 24 24 24 24 24 23 21 21 19 17 16 17 18 20 21 21 20 20 21 21 21 22 21 19 17 15 15 16 18 20 21 21 21 20 20 20 22 23 25 26 25 23 21 20 21 21 20 21 23 22 21 19 17 17 18 19 19 18 16 16 19
24 24 24 25 25 24 23 22 21 20 19 17 17 18 18 20 20 20 19 19 19 19 20 20 20 18 17 17 18 20 21 21 20 19 19 19 19 20 20 19 20 21 23 23 23 23 24 24 23 23 24 22 20 19 18 18 20 20 19 18 18 18 21
24 25 25 25 24 24 23 21 20 20 19 17 17 18 18 19 19 18 18 18 18 18 19 19 19 18 18 19 21 22 21 20 19 18 18 18 18 19 18 16 16 15 16 18 19 21 23 24 23 23 23 21 19 18 18 18 19 18 17 18 18 18 21
24 25 25 25 24 23 22 21 19 19 17 16 17 17 17 18 19 19 20 20 21 21 20 20 21 20 20 20 21 20 19 17 17 17 17 17 17 18 17 17 16 15 15 17 18 20 20 18 16 16 16 16 15 16 17 17 17 16 15 16 16 18 21
25 24 24 24 23 22 21 20 19 18 17 16 16 16 17 18 19 19 20 20 20 20 19 20 20 19 19 19 19 18 16 15 16 17 18 18 19 20 20 19 16 13 13 15 17 18 15 12 10 11 12 10 8 11 14 14 14 14 13 14 12 11 15
24 24 24 23 22 21 20 20 19 19 18 16 16 16 17 18 17 18 18 19 18 19 19 20 20 19 19 19 17 16 16 16 16 17 19 20 21 18 16 15 13 11 12 13 13 13 12 13 14 15 14 11 8 10 13 14 14 14 14 14 12 10 14
23 24 23 22 21 20 20 20 19 19 18 17 16 16 16 17 17 18 19 19 19 19 18 19 19 18 18 18 17 17 17 16 16 19 20 19 16 12 11 12 11 10 11 11 12 13 14 15 16 16 16 15 14 14 15 15 15 15 13 13 14 14 13
22 23 22 21 21 20 20 20 20 19 18 17 16 16 16 16 17 17 17 17 17 18 18 18 17 17 17 18 18 17 16 16 17 18 17 13 9 9 10 10 9 8 11 14 16 17 18 17 17 17 17 17 17 16 16 16 15 14 13 13 15 16 12
21 22 21 20 20 20 20 21 21 20 18 17 16 16 15 16 17 17 17 17 17 19 20 19 19 18 18 17 17 15 14 15 14 11 11 7 4 4 5 6 9 12 16 18 19 18 17 17 17 16 15 14 14 14 14 15 14 14 15 15 16 17 16
21 21 21 20 21 21 21 22 22 21 19 18 17 15 15 16 17 16 17 18 19 20 21 21 20 19 18 17 16 14 13 13 9 8 7 3 3 5 5 9 14 16 17 17 17 16 16 16 15 14 13 13 13 13 14 15 16 16 17 17 18 18 18
20 20 21 21 22 22 23 23 22 21 20 18 17 16 15 15 16 16 16 18 19 19 20 20 19 18 18 16 15 13 12 10 9 8 4 3 5 7 12 15 15 15 15 15 15 15 16 15 14 13 14 13 14 15 16 17 17 18 19 19 19 19 19
20 20 20 21 22 23 23 23 22 21 19 18 17 16 15 15 15 16 16 17 18 17 16 16 15 15 15 14 13 12 10 9 9 8 7 9 12 15 15 14 14 15 15 15 16 16 17 17 15 15 16 17 17 18 18 18 18 18 18 18 18 18 19
20 20 20 21 22 23 24 23 21 19 17 16 15 15 15 15 15 16 16 17 18 17 15 13 13 13 13 12 13 13 12 11 11 12 14 15 16 15 13 14 15 15 15 16 16 17 18 18 17 17 18 18 18 18 18 18 18 17 16 15 16 16 17
20 20 20 21 22 24 24 23 20 18 16 15 14 15 15 15 15 16 17 18 18 17 15 13 12 11 11 12 13 14 14 14 15 16 17 17 15 13 13 14 14 14 15 15 15 15 17 17 16 16 16 16 16 16 15 15 15 14 13 12 13 15 16
20 20 20 21 23 24 24 22 20 19 16 14 13 14 13 12 12 14 16 18 18 15 12 11 11 11 12 12 13 14 14 14 16 16 16 14 13 12 12 13 13 14 14 14 14 14 15 15 14 14 13 13 14 13 12 11 12 13 12 11 12 15 16
21 21 22 22 22 22 21 21 21 19 16 13 12 11 11 11 11 12 13 17 17 14 12 12 12 12 12 13 13 14 14 15 15 14 14 13 12 12 12 12 13 14 14 13 14 14 14 14 13 13 12 12 12 11 10 10 10 12 12 12 12 13 15
22 22 22 22 22 21 20 21 20 16 12 10 10 10 10 11 11 10 11 13 15 15 15 15 15 15 15 15 15 15 16 16 15 15 15 14 13 12 12 12 13 14 14 13 13 13 13 13 12 12 11 11 11 10 9 9 10 11 11 11 12 13 15
23 22 21 21 22 20 20 20 17 12 9 10 10 11 12 12 11 11 10 10 12 15 17 19 18 18 18 18 17 17 18 18 18 17 17 16 14 13 13 13 13 14 13 13 13 13 12 12 11 11 10 9 10 10 9 9 10 10 10 11 12 14 16
22 21 20 21 21 19 17 17 14 12 12 12 12 12 13 13 13 13 13 12 13 15 17 19 19 20 20 21 20 20 21 20 19 19 18 17 16 15 14 14 14 13 12 12 12 12 12 11 11 10 9 8 9 10 10 9 9 9 10 11 12 14 17
20 19 18 19 20 19 17 16 14 14 15 15 14 13 13 12 13 13 13 14 16 19 20 20 21 21 22 22 22 23 23 22 22 21 20 18 17 16 15 14 13 12 11 12 12 12 11 11 10 9 9 8 9 10 10 10 9 9 10 12 13 14 16
17 18 17 17 18 19 19 18 17 16 15 14 12 12 11 12 12 12 12 13 15 18 21 23 23 23 23 23 23 24 24 24 23 21 20 19 18 17 15 13 12 12 12 12 11 11 11 10 9 9 8 8 8 9 10 10 10 10 11 12 13 14 14
17 18 18 18 18 18 18 18 16 14 14 13 12 12 12 13 13 14 15 15 15 15 17 22 25 25 25 25 25 25 25 24 22 21 19 18 18 17 15 13 13 13 13 12 11 11 11 10 9 9 8 8 8 9 10 10 10 11 11 12 12 12 13
19 19 18 18 18 18 19 19 18 17 17 17 16 15 13 13 15 16 17 19 19 17 16 18 23 25 26 26 25 25 25 23 21 19 18 17 17 16 14 13 13 13 13 12 12 11 11 10 10 9 9 8 8 8 9 10 9 10 11 11 11 12 13
21 19 17 16 16 17 19 20 20 19 19 18 16 13 12 14 16 17 18 19 20 18 16 16 18 21 21 22 22 22 21 20 18 17 16 15 15 15 14 13 13 13 12 12 12 11 11 11 10 9 9 8 9 9 9 9 9 9 10 11 11 12 12
Wind_Direction
230 231 232 233 237 241 246 249 252 254 255 256 259 262 266 269 272 276 282 286 288 290 294 294 292 291 289 289 291 286 279 280 285 289 288 287 288 286 281 282 279 275 282 288 288 290 294 299 303 303 305 306 307 313 316 305 293 291 294 300 306 309 313
230 230 230 231 235 240 244 247 249 250 250 251 255 258 262 266 270 274 278 281 285 288 290 290 287 287 285 284 283 279 276 277 279 281 284 283 283 285 281 280 281 281 284 288 289 290 294 297 299 298 301 303 303 306 302 289 285 288 294 301 307 310 313
231 229 228 230 234 238 242 244 245 246 247 249 253 256 260 264 267 271 275 278 282 287 289 288 286 285 284 282 282 279 277 276 276 276 279 279 280 281 280 280 281 280 280 286 289 291 292 295 296 296 297 299 299 298 291 284 287 293 298 303 306 309 313
231 228 227 229 233 237 239 241 242 242 244 248 252 256 259 263 266 270 274 277 282 286 287 287 286 285 285 284 282 280 277 274 274 275 277 279 281 281 280 281 280 277 277 281 286 290 290 292 295 294 296 300 301 297 289 286 292 299 301 303 305 308 312
229 228 228 229 233 236 238 240 241 240 242 247 251 255 258 262 266 270 274 278 282 285 287 287 285 283 284 283 280 278 276 274 276 278 279 281 283 284 283 282 281 281 280 279 280 286 290 292 293 294 295 300 302 296 289 288 293 297 300 303 305 307 312
229 230 231 232 235 237 238 239 239 239 243 247 250 254 258 262 267 271 275 278 282 286 287 284 279 278 278 279 280 280 279 278 279 281 281 282 285 287 286 284 285 289 287 282 279 281 286 289 290 290 290 294 295 290 288 289 292 296 299 302 306 308 312
231 232 234 235 235 236 238 237 237 239 242 246 250 254 259 264 269 273 276 279 283 286 283 275 270 271 275 278 280 279 278 279 280 280 281 282 286 287 286 285 287 289 288 284 278 276 279 284 285 282 282 289 292 286 284 286 289 292 297 303 307 309 312
233 234 233 234 234 235 236 235 235 238 242 246 251 256 262 267 271 275 278 281 284 282 276 270 267 266 271 277 277 276 279 280 280 281 282 284 284 284 282 281 282 282 281 278 274 271 275 278 278 278 280 284 285 279 280 286 286 287 295 303 304 306 311
233 232 231 231 232 233 233 234 236 240 244 248 253 259 265 271 275 278 279 280 281 277 273 271 267 266 273 278 274 275 279 281 281 281 280 281 281 281 279 277 276 276 272 269 266 265 269 269 268 273 276 275 274 275 283 291 288 284 292 299 301 303 309
228 229 230 230 231 231 232 234 238 241 246 251 257 264 271 275 277 277 276 275 275 273 271 268 264 267 276 277 272 273 277 277 276 273 272 274 277 278 278 276 274 271 266 263 263 263 269 271 270 275 276 274 278 285 290 292 288 287 292 297 300 304 310
226 228 230 231 232 232 233 236 239 243 248 252 255 262 269 272 273 272 270 269 267 267 267 265 265 272 278 276 271 270 270 269 268 267 268 272 273 273 273 272 274 277 275 274 276 278 280 279 275 278 283 285 288 289 289 290 289 288 289 294 298 302 308
226 229 230 232 232 233 235 237 240 245 250 251 251 258 264 267 267 266 264 262 262 264 265 265 267 272 274 269 264 262 263 267 271 272 272 272 271 270 268 266 268 275 280 283 286 285 283 280 280 284 287 287 286 285 285 286 286 284 284 286 285 282 294
227 229 231 231 232 234 236 238 241 247 251 252 255 262 267 267 266 263 260 260 260 261 263 265 266 264 259 255 258 267 275 279 279 277 274 273 272 271 270 268 267 267 271 277 281 280 278 279 281 281 281 283 282 279 280 279 279 281 281 281 279 280 291
228 229 230 232 234 235 237 239 244 251 255 257 261 266 267 265 263 261 260 259 258 259 262 264 262 258 257 262 271 280 283 282 279 277 276 274 271 270 272 275 274 270 270 273 276 275 276 277 277 277 280 283 279 274 275 276 277 280 280 280 282 285 294
230 231 231 233 234 235 237 241 248 256 260 260 263 266 264 262 261 263 263 263 263 265 265 264 263 265 271 276 280 282 280 277 278 279 276 272 271 271 272 274 280 281 280 279 278 277 278 280 279 278 278 278 274 271 273 274 275 277 279 283 288 291 297
231 232 232 233 233 235 239 244 252 259 261 259 261 262 260 260 262 264 265 266 266 267 267 266 267 270 275 279 281 279 275 274 278 277 274 272 274 275 275 278 284 287 287 289 287 284 287 288 283 278 278 277 270 265 267 268 269 272 278 287 296 299 301
231 233 233 232 232 236 242 249 256 263 263 259 259 259 258 260 264 265 265 265 265 265 265 265 264 266 271 276 278 275 272 275 276 270 267 268 271 272 273 277 281 283 286 293 293 289 289 285 274 273 282 285 270 259 264 265 265 272 282 292 299 299 298
233 233 232 233 236 241 248 255 261 267 266 260 255 255 258 262 264 263 263 263 263 264 264 263 263 265 269 271 273 274 277 277 270 264 261 260 260 260 260 265 274 284 290 296 299 297 293 285 280 279 279 272 253 251 261 263 269 279 286 288 286 284 295
234 233 234 236 241 246 253 260 265 269 267 258 252 255 259 263 263 262 263 265 266 266 265 264 263 263 264 267 269 273 275 273 267 262 257 250 244 242 252 267 282 292 295 298 303 307 307 302 295 289 280 270 262 263 267 271 277 283 284 284 285 288 297
233 235 236 239 245 250 256 262 267 269 265 255 250 255 259 261 262 261 263 265 266 266 266 266 266 266 266 267 267 267 267 271 273 262 243 230 232 251 266 277 287 293 299 305 307 306 305 301 296 289 283 278 275 275 278 281 283 285 287 288 290 291 286
232 235 239 243 249 254 259 264 267 268 261 251 249 254 258 261 261 261 262 263 263 265 267 268 269 270 268 267 267 264 262 271 273 244 212 215 240 240 245 268 284 292 299 302 303 301 298 294 289 286 283 281 281 281 283 287 289 291 294 293 292 292 283
233 237 241 246 251 257 262 266 266 265 257 249 249 254 256 259 261 260 260 260 259 260 263 265 268 271 272 270 266 260 260 264 249 195 181 213 203 187 241 283 291 296 299 298 297 295 291 287 284 282 280 280 283 286 288 292 294 295 297 296 293 291 284
234 239 244 250 254 260 266 268 266 262 255 249 248 252 255 259 261 259 258 259 261 263 265 269 271 271 271 267 257 250 251 246 221 196 195 249 254 272 294 301 301 301 300 296 292 288 285 284 282 282 282 281 286 291 292 294 296 295 296 296 294 291 287
237 241 246 252 258 264 269 271 268 261 254 249 247 250 255 259 260 259 258 260 264 267 270 274 272 265 261 253 242 238 236 229 227 242 269 287 293 300 305 305 305 305 300 294 289 285 284 286 286 286 287 287 289 292 293 294 295 295 296 296 294 293 291
240 244 248 253 260 267 272 274 271 261 251 246 246 251 258 261 260 258 258 258 262 265 265 267 267 259 246 233 226 229 234 239 251 267 280 291 297 299 300 301 304 304 300 295 292 289 288 289 289 289 289 289 290 291 292 293 294 294 296 298 297 294 291
243 246 250 254 260 267 273 275 272 262 250 243 246 254 260 262 258 255 252 252 255 258 258 256 252 239 222 213 218 229 239 250 261 270 279 285 287 286 291 300 303 302 300 297 296 295 294 293 293 292 290 290 290 290 293 295 296 296 299 301 302 299 296
244 246 249 255 262 268 271 272 270 263 251 244 249 257 258 258 259 257 252 248 246 249 249 238 224 215 213 217 227 238 248 258 266 272 274 272 271 278 289 297 299 299 299 298 297 299 298 297 296 295 293 292 291 293 297 300 300 302 305 309 311 306 304
246 249 253 258 262 265 267 267 266 260 252 247 251 254 253 254 258 261 256 247 241 237 234 223 216 220 230 236 242 249 255 261 263 264 261 259 264 276 286 292 296 298 297 297 298 300 299 298 297 295 294 293 292 296 302 303 303 305 307 310 312 307 306
253 257 262 264 264 262 258 258 260 259 252 252 255 255 256 258 260 264 265 253 239 231 227 226 227 234 239 242 246 250 252 257 258 255 255 258 265 274 281 286 292 296 296 295 295 297 298 297 295 293 294 294 295 299 304 306 306 306 306 307 306 301 302
261 264 267 267 267 264 258 257 262 263 255 252 254 257 261 263 263 265 267 260 241 230 227 228 231 235 238 241 244 247 250 254 255 254 256 260 264 270 277 283 289 294 294 290 288 292 295 293 291 292 293 294 297 303 308 310 309 304 301 302 302 299 300
266 266 265 264 268 270 264 259 257 254 250 250 251 254 257 259 259 258 256 253 243 233 230 230 229 232 238 241 242 245 250 253 255 256 258 260 262 265 271 278 288 293 291 285 284 288 289 288 287 289 290 293 300 306 311 313 310 303 297 298 299 297 298
267 262 256 255 261 265 263 258 255 253 250 249 249 252 254 256 258 255 250 246 238 230 230 231 230 232 237 239 239 244 249 252 254 257 259 260 260 263 270 278 287 291 286 281 282 283 284 284 282 280 284 291 299 305 309 309 307 304 301 300 301 300 298
257 254 252 251 253 254 256 259 260 255 246 240 243 252 257 259 260 259 258 258 248 233 227 228 230 234 238 240 242 247 250 251 253 257 260 260 259 262 269 278 284 285 283 282 281 281 280 280 275 273 278 288 296 301 302 302 302 303 302 303 305 306 304
253 251 251 253 253 252 252 252 250 244 242 247 257 262 263 264 264 261 259 261 263 258 244 231 229 233 239 241 245 248 249 249 252 257 260 260 257 259 266 275 278 280 282 281 279 277 276 275 272 269 273 283 294 297 295 296 300 301 301 304 306 308 308
265 260 255 253 253 251 250 249 248 250 257 265 268 266 262 259 257 256 253 252 256 265 263 244 232 233 238 241 245 249 249 248 252 258 260 258 254 255 262 270 273 276 278 277 275 273 273 272 269 267 269 279 290 293 293 295 300 301 302 303 303 305 307
269 270 265 258 255 252 251 252 254 257 261 265 265 260 253 247 245 247 253 255 254 257 261 254 242 238 240 244 247 250 250 250 252 256 257 254 252 253 258 267 272 273 274 273 272 270 268 266 265 263 265 274 285 289 291 294 297 301 303 302 301 301 303